User: anonymous   Login
Location: *
(43.9900°N, 3.4811°E)
Time: 01:04:55
(UTC+00:00)
Language:

ARGOS - Orbit

View from above orbital plane
View from above orbital plane
View from above satellite
View from above satellite

Ground track
Ground track

The orbit data is extracted from the following two-line orbital elements,

1 25634U 99008A   19286.18466085  .00000007  00000-0  23060-4 0  9992
2 25634  98.5002 330.5117 0009058 277.9775  82.0374 14.19359355 68757
Epoch (UTC): 13 October 2019 04:25:54
Eccentricity: 0.0009058
inclination: 98.5002°
perigee height: 821 km
apogee height: 834 km
right ascension of ascending node: 330.5117°
argument of perigee: 277.9775°
revolutions per day: 14.19359355
mean anomaly at epoch: 82.0374°
orbit number at epoch: 6875

The dashed part of the orbit path shows where the satellite is in the earth's shadow,  

DLR